| time (UTC) | temp F | wind direction | speed MPH | gust MPH | rain 1hr in | rain 24hr in | rain mn in | humidity % | barometer mb |
| 20260504221543 | 67 | 217 | 1.0 | 7.0 | 0.00 | 0.00 | 0.00 | 37 | 1007.8 |
| 20260504220053 | 67 | 272 | 2.0 | 6.0 | 0.00 | 0.00 | 0.00 | 37 | 1007.8 |
| 20260504214549 | 67 | 335 | 1.0 | 4.0 | 0.00 | 0.00 | 0.00 | 39 | 1007.9 |
| 20260504213048 | 68 | 200 | 1.0 | 6.0 | 0.00 | 0.00 | 0.00 | 36 | 1008.0 |
| 20260504211540 | 69 | 338 | 1.0 | 7.0 | 0.00 | 0.00 | 0.00 | 35 | 1007.9 |
| 20260504210038 | 70 | 167 | 0.0 | 6.0 | 0.00 | 0.00 | 0.00 | 35 | 1007.8 |
| 20260504204535 | 69 | 230 | 1.0 | 6.0 | 0.00 | 0.00 | 0.00 | 36 | 1007.7 |
| 20260504203033 | 68 | 330 | 4.0 | 10.0 | 0.00 | 0.00 | 0.00 | 37 | 1007.9 |
| 20260504201530 | 67 | 266 | 2.0 | 4.0 | 0.00 | 0.00 | 0.00 | 39 | 1008.1 |
| 20260504200038 | 67 | 348 | 1.0 | 4.0 | 0.00 | 0.00 | 0.00 | 39 | 1008.4 |
| 20260504194529 | 67 | 278 | 2.0 | 5.0 | 0.00 | 0.00 | 0.00 | 38 | 1008.4 |
| 20260504193027 | 67 | 214 | 1.0 | 7.0 | 0.00 | 0.00 | 0.00 | 39 | 1008.4 |
| 20260504191537 | 66 | 328 | 3.0 | 9.0 | 0.00 | 0.00 | 0.00 | 42 | 1008.2 |
| 20260504190021 | 65 | 185 | 2.0 | 4.0 | 0.00 | 0.00 | 0.00 | 43 | 1008.3 |
| 20260504184520 | 63 | 217 | 2.0 | 8.0 | 0.00 | 0.00 | 0.00 | 44 | 1008.6 |
| 20260504183035 | 62 | 245 | 0.0 | 3.0 | 0.00 | 0.00 | 0.00 | 46 | 1008.8 |
| 20260504181524 | 61 | 16 | 0.0 | 2.0 | 0.00 | 0.00 | 0.00 | 48 | 1009.0 |
| 20260504180021 | 62 | 347 | 1.0 | 5.0 | 0.00 | 0.00 | 0.00 | 44 | 1008.9 |
| 20260504174520 | 61 | 331 | 1.0 | 7.0 | 0.00 | 0.00 | 0.00 | 45 | 1008.9 |
| 20260504173017 | 62 | 264 | 0.0 | 5.0 | 0.00 | 0.00 | 0.00 | 42 | 1008.9 |
| 20260504171517 | 62 | 272 | 2.0 | 7.0 | 0.00 | 0.00 | 0.00 | 41 | 1008.8 |
| 20260504081545 | 35 | 285 | 0.0 | 1.0 | 0.00 | 0.00 | 0.00 | 82 | 1011.2 |
| 20260504044537 | 35 | 266 | 0.0 | 1.0 | 0.00 | 0.01 | 0.00 | 84 | 1010.8 |
| 20260504043029 | 34 | 266 | 0.0 | 1.0 | 0.00 | 0.01 | 0.00 | 84 | 1011.0 |
| 20260504041528 | 34 | 266 | 0.0 | 1.0 | 0.00 | 0.01 | 0.00 | 87 | 1010.9 |
| 20260504040024 | 35 | 266 | 0.0 | 1.0 | 0.00 | 0.01 | 0.00 | 87 | 1010.8 |
| 20260504034534 | 35 | 266 | 0.0 | 0.0 | 0.00 | 0.01 | 0.01 | 86 | 1010.8 |
| 20260504033023 | 35 | 266 | 0.0 | 1.0 | 0.00 | 0.01 | 0.01 | 85 | 1010.7 |
| 20260504031521 | 35 | 266 | 0.0 | 1.0 | 0.00 | 0.01 | 0.01 | 84 | 1010.7 |
| 20260504030036 | 36 | 266 | 0.0 | 0.0 | 0.00 | 0.01 | 0.01 | 83 | 1010.6 |
| 20260504024517 | 37 | 266 | 0.0 | 1.0 | 0.00 | 0.01 | 0.01 | 81 | 1010.5 |
| 20260504023016 | 37 | 266 | 0.0 | 1.0 | 0.00 | 0.01 | 0.01 | 79 | 1010.7 |
| 20260504021513 | 37 | 266 | 0.0 | 1.0 | 0.00 | 0.01 | 0.01 | 78 | 1010.7 |
| 20260504020011 | 38 | 266 | 0.0 | 0.0 | 0.00 | 0.01 | 0.01 | 76 | 1010.7 |
| 20260504014528 | 38 | 266 | 0.0 | 1.0 | 0.00 | 0.04 | 0.01 | 74 | 1010.6 |
| 20260504013009 | 39 | 266 | 0.0 | 0.0 | 0.00 | 0.04 | 0.01 | 73 | 1010.5 |
| 20260504011508 | 40 | 266 | 0.0 | 1.0 | 0.00 | 0.04 | 0.01 | 68 | 1010.4 |
| 20260504010009 | 42 | 266 | 0.0 | 1.0 | 0.00 | 0.04 | 0.01 | 61 | 1010.2 |
| 20260504004511 | 43 | 266 | 0.0 | 2.0 | 0.00 | 0.05 | 0.01 | 59 | 1010.0 |
| 20260504003019 | 44 | 319 | 0.0 | 3.0 | 0.00 | 0.05 | 0.01 | 55 | 1009.7 |
| 20260504001506 | 44 | 280 | 2.0 | 6.0 | 0.00 | 0.05 | 0.01 | 54 | 1009.6 |
| 20260504000005 | 45 | 303 | 0.0 | 4.0 | 0.00 | 0.05 | 0.01 | 53 | 1009.3 |
| 20260503234515 | 45 | 91 | 0.0 | 3.0 | 0.00 | 0.07 | 0.01 | 51 | 1008.9 |
| 20260503233005 | 46 | 337 | 1.0 | 3.0 | 0.00 | 0.07 | 0.01 | 50 | 1008.7 |
| 20260503231504 | 47 | 147 | 1.0 | 6.0 | 0.00 | 0.07 | 0.01 | 48 | 1008.5 |
| 20260503230004 | 47 | 341 | 0.0 | 3.0 | 0.00 | 0.07 | 0.01 | 51 | 1008.2 |
| 20260503224504 | 48 | 272 | 1.0 | 5.0 | 0.00 | 0.10 | 0.01 | 45 | 1008.1 |
| 20260503223003 | 49 | 284 | 2.0 | 9.0 | 0.00 | 0.10 | 0.01 | 44 | 1007.8 |